FW0246 Weather Reports


time (UTC)temp
C
wind
direction
speed
KPH
gust
KPH
rain 1hr
cm
rain 24hr
cm
rain mn
cm
humidity
%
barometer
mb
20260504150903 14 0 0.0 0.0 0.00 0.08 0.08 90 1013.9
20260504140903 14 0 0.0 0.0 0.03 0.08 0.08 84 1014.0
20260504081803 15 239 1.6 3.2 0.00 0.05 0.03 82 1014.5
20260504080903 15 238 1.6 3.2 0.00 0.05 0.03 80 1014.5
20260504080218 15 236 1.6 3.2 0.00 0.05 0.03 81 1014.5
20260504050003 5 0 0.0 0.0 0.00 0.05 0.03 97 1014.1
20260504045403 5 0 0.0 0.0 0.00 0.05 0.03 97 1014.1
20260504043603 5 0 0.0 0.0 0.00 0.05 0.03 97 1014.0
20260504042703 5 0 0.0 0.0 0.00 0.05 0.03 97 1014.0
20260504041803 5 0 0.0 0.0 0.00 0.05 0.03 97 1014.0
20260504041119 5 0 0.0 0.0 0.00 0.05 0.03 96 1014.0
20260504040003 5 0 0.0 0.0 0.00 0.05 0.03 96 1014.1
20260504035403 5 0 0.0 0.0 0.00 0.05 0.03 96 1013.8
20260504034503 5 0 0.0 0.0 0.00 0.05 0.03 97 1013.8
20260504033603 5 0 0.0 0.0 0.00 0.05 0.03 96 1013.9
20260504032703 5 0 0.0 0.0 0.03 0.05 0.03 97 1013.8
20260504031803 5 0 0.0 0.0 0.03 0.05 0.03 96 1013.9
20260504030903 5 0 0.0 0.0 0.03 0.05 0.03 96 1014.0
20260504030003 5 0 0.0 0.0 0.03 0.05 0.03 96 1014.0
20260504025403 5 0 0.0 0.0 0.03 0.05 0.03 96 1014.1
20260504023603 6 0 0.0 0.0 0.03 0.05 0.03 96 1014.0
20260504022703 6 0 0.0 0.0 0.00 0.05 0.00 96 1014.0
20260504021803 6 0 0.0 0.0 0.00 0.05 0.00 96 1014.1
20260504020903 6 0 0.0 0.0 0.00 0.05 0.00 96 1014.2
20260504020003 6 0 0.0 0.0 0.00 0.05 0.00 96 1014.2
20260504015403 6 0 0.0 0.0 0.00 0.05 0.00 96 1014.1
20260504014503 6 0 0.0 0.0 0.00 0.05 0.00 96 1014.2
20260504012920 6 0 0.0 0.0 0.00 0.05 0.00 96 1014.2
20260504011803 6 0 0.0 0.0 0.00 0.05 0.00 96 1014.3
20260504010903 6 0 0.0 0.0 0.00 0.05 0.00 96 1014.2
20260504010003 6 0 0.0 0.0 0.00 0.05 0.00 95 1014.3
20260504005403 7 0 0.0 0.0 0.00 0.05 0.00 96 1014.3
20260504004503 7 0 0.0 0.0 0.00 0.05 0.00 96 1014.3
20260504002703 7 0 0.0 0.0 0.00 0.05 0.00 95 1014.0
20260504001803 7 0 0.0 0.0 0.00 0.05 0.00 96 1014.1
20260504001118 7 0 0.0 0.0 0.00 0.05 0.00 96 1014.2
20260504000003 7 0 0.0 0.0 0.00 0.05 0.00 96 1014.1
20260503235403 7 0 0.0 0.0 0.00 0.05 0.00 95 1013.9
20260503234503 7 0 0.0 0.0 0.00 0.05 0.00 95 1014.0
20260503233603 7 0 0.0 0.0 0.00 0.05 0.00 95 1013.9
20260503232919 7 0 0.0 0.0 0.00 0.05 0.00 95 1014.0
20260503231803 7 0 0.0 0.0 0.00 0.05 0.00 95 1014.1
20260503230903 7 0 0.0 0.0 0.00 0.05 0.00 95 1014.1
20260503230217 7 0 0.0 0.0 0.00 0.05 0.00 95 1014.3
20260503225616 7 0 0.0 0.0 0.00 0.05 0.00 94 1014.3
20260503224503 8 0 0.0 0.0 0.00 0.05 0.00 95 1014.2
20260503223819 8 0 0.0 0.0 0.00 0.05 0.00 95 1014.3
20260503222703 8 0 0.0 0.0 0.00 0.05 0.00 94 1014.1
20260503221803 8 0 0.0 0.0 0.00 0.05 0.00 94 1014.0
20260503220903 8 0 0.0 0.0 0.00 0.05 0.00 94 1013.9
20260503220003 8 0 0.0 0.0 0.00 0.05 0.00 94 1014.1
20260503215403 8 0 0.0 0.0 0.00 0.05 0.05 93 1014.1
20260503214719 8 0 0.0 0.0 0.00 0.05 0.05 94 1013.8
20260503213603 9 0 0.0 0.0 0.00 0.05 0.05 94 1013.7
20260503212703 9 0 0.0 0.0 0.00 0.05 0.05 93 1013.8
20260503211803 9 0 0.0 0.0 0.00 0.05 0.05 93 1013.9
20260503210903 10 0 0.0 0.0 0.00 0.05 0.05 92 1013.8
20260503210003 10 0 0.0 0.0 0.00 0.05 0.05 92 1013.8
20260503205403 10 0 0.0 0.0 0.00 0.05 0.05 92 1013.8
20260503204719 10 0 0.0 0.0 0.00 0.05 0.05 92 1013.8
20260503203603 10 0 0.0 0.0 0.00 0.05 0.05 92 1013.9
20260503202917 11 0 0.0 0.0 0.00 0.05 0.05 91 1013.8
20260503202017 11 0 0.0 0.0 0.00 0.05 0.05 91 1013.8
20260503201116 11 0 0.0 0.0 0.00 0.05 0.05 91 1013.8
20260503200215 11 0 0.0 0.0 0.00 0.05 0.05 90 1014.0
20260503195403 12 0 0.0 1.6 0.00 0.05 0.05 90 1013.9
20260503194503 12 0 0.0 0.0 0.00 0.05 0.05 88 1014.0
20260503193603 12 0 0.0 0.0 0.00 0.05 0.05 88 1013.8
20260503192703 13 0 0.0 0.0 0.00 0.05 0.05 87 1013.8
20260503191803 13 231 0.0 1.6 0.00 0.05 0.05 85 1013.7
20260503191116 14 0 0.0 0.0 0.00 0.05 0.05 85 1013.8
20260503190003 14 0 0.0 0.0 0.00 0.05 0.05 85 1013.7
20260503185404 14 0 0.0 0.0 0.00 0.05 0.05 84 1013.8
20260503184505 15 0 0.0 0.0 0.00 0.05 0.05 84 1013.7
20260503183603 15 0 0.0 0.0 0.00 0.05 0.05 84 1013.6
20260503182703 15 0 0.0 0.0 0.00 0.05 0.05 83 1013.6
20260503181803 15 0 0.0 0.0 0.00 0.05 0.05 81 1013.6
20260503180903 15 215 0.0 3.2 0.00 0.05 0.05 82 1013.4
20260503180003 15 213 0.0 1.6 0.00 0.05 0.05 82 1013.4
20260503174503 15 213 0.0 3.2 0.00 0.05 0.05 80 1013.2
20260503173603 15 0 0.0 0.0 0.00 0.05 0.05 82 1013.4
20260503172703 15 0 0.0 0.0 0.00 0.05 0.05 81 1013.3
20260503172015 15 0 0.0 0.0 0.00 0.05 0.05 81 1013.4